Regional Weather Roundup
Issued by NWS

Home | Current Version | Previous Version | Text Only | Print | Product List | Glossary On
Versions: 1 2 3 4 5 6 7 8 9 10 11 12 13 14 15 16 17 18 19 20 21 22 23 24 25 26 27 28
000
ASUS42 KFFC 200903
RWRGA
WEATHER ROUNDUP FOR GEORGIA
NATIONAL WEATHER SERVICE PEACHTREE CITY GA
500 AM EDT SUN APR 20 2014

NOTE: "FAIR" INDICATES FEW OR NO CLOUDS BELOW 12,000 FEET WITH NO
SIGNIFICANT WEATHER AND/OR OBSTRUCTIONS TO VISIBILITY.

* = USE WITH CAUTION. THE STATIONS MARKED WITH AN ASTERISK MAY NOT
REPORT WEATHER SUCH AS PRECIPITATION, FOG, OR THUNDER AND ARE NOT
QUALITY CONTROLLED BY NWS.

THE REMARK "TC" DENOTES TEMPERATURE READING IN DEGREES CELSIUS.

GAZ001>058-201000-
NORTH GEORGIA

CITY           SKY/WX    TMP DP  RH WIND       PRES   REMARKS
ATLANTA        PTCLDY    52  43  71 NE15      30.16S
ATHENS         PTCLDY    50  43  77 E5        30.16F
CHAMBLEE       CLEAR     51  41  68 E6        30.17R
PEACHTREE CITY CLOUDY    53  44  71 NE7       30.16S
ROME           CLEAR     48  46  93 CALM      30.20R
WEST ATLANTA   CLEAR     53  42  66 NE10      30.17R
GAINESVILLE    CLEAR     51  42  71 NE6       30.19R
CARTERSVILLE   CLEAR     46  44  93 CALM      30.20R


CITY           SKY/WX    TMP DP  RH WIND       PRES   REMARKS
DALTON*        CLEAR     45  45 100 CALM      30.20R
MARIETTA       CLEAR     53  43  69 VRB7      30.18R
$$

GAZ059>098-102>109-201000-
CENTRAL GEORGIA

CITY           SKY/WX    TMP DP  RH WIND       PRES   REMARKS
AUGUSTA-BUSH   LGT RAIN  50  47  89 N8        30.14S FOG
AUGUSTA-DANIEL LGT RAIN  50  48  93 N7        30.14S
COLUMBUS       CLOUDY    54  46  74 E6        30.15R
MACON          CLOUDY    52  47  83 NE12G20   30.13S
ROBINS AFB     CLOUDY    53  48  83 NE9       30.13S


CITY           SKY/WX    TMP DP  RH WIND       PRES   REMARKS
LAGRANGE*      CLOUDY    54  47  78 NE3       30.16R
SYLVANIA*      CLOUDY    53  50  90 NE13      30.09F FOG
MILLEDGEVILLE* CLOUDY    54  45  71 NE5       30.15R
$$

GAZ099>101-110>166-201000-
SOUTH GEORGIA

CITY           SKY/WX    TMP DP  RH WIND       PRES   REMARKS
SAVANNAH       CLOUDY    54  50  86 N15       30.05S
VALDOSTA       CLOUDY    58  53  84 N8        30.05S
ALMA           CLOUDY    54  50  86 VRB5      30.06S
ST SIMONS      LGT RAIN  55  53  93 N12       30.01F
FT STEWART     CLOUDY    54  54 100 N7        30.04R
ALBANY         CLOUDY    54  52  93 N10       30.11S
HUNTER AFB     CLOUDY    54  52  94 N10       30.03S
MOODY AFB      CLOUDY    54  54 100 N12       30.05S
BRUNSWICK      CLOUDY    54  54 100 N5        30.04S


CITY           SKY/WX    TMP DP  RH WIND       PRES   REMARKS
BAINBRIDGE*    CLOUDY    59  55  88 N7        30.09R FOG
MOULTRIE*      CLOUDY    54  54 100 N6        30.07R
VIDALIA*       CLOUDY    52  50  93 N10G16    30.09R
DOUGLAS*       CLOUDY    54  52  94 NE9       30.07F
$$



USA.gov is the U.S. government's official web portal to all federal, state and local government web resources and services.